TimeEST,TemperatureF,Dew PointF,Humidity,Sea Level PressureIn,VisibilityMPH,Wind Direction,Wind SpeedMPH,Gust SpeedMPH,PrecipitationIn,Events,Conditions,WindDirDegrees,DateUTC
12:15 AM,30.7,27.0,86,30.13,10.0,Calm,Calm,-,N/A,,Clear,0,2014-02-23 05:15:00
12:35 AM,30.0,25.9,85,30.12,10.0,Calm,Calm,-,N/A,,Clear,0,2014-02-23 05:35:00
12:55 AM,29.7,25.7,85,30.12,10.0,Calm,Calm,-,N/A,,Clear,0,2014-02-23 05:55:00
1:15 AM,29.8,26.6,88,30.12,10.0,Calm,Calm,-,N/A,,Clear,0,2014-02-23 06:15:00
1:35 AM,29.3,25.5,86,30.12,10.0,Calm,Calm,-,N/A,,Clear,0,2014-02-23 06:35:00
1:55 AM,29.1,26.2,89,30.12,10.0,Calm,Calm,-,N/A,,Clear,0,2014-02-23 06:55:00
2:15 AM,28.9,25.5,87,30.12,10.0,West,3.5,-,N/A,,Clear,270,2014-02-23 07:15:00
2:30 AM,29.1,25.5,86,30.12,10.0,Calm,Calm,-,N/A,,Clear,0,2014-02-23 07:30:00
2:55 AM,29.3,26.4,89,30.11,10.0,Calm,Calm,-,N/A,,Clear,0,2014-02-23 07:55:00
3:15 AM,29.5,26.2,88,30.11,10.0,Calm,Calm,-,N/A,,Clear,0,2014-02-23 08:15:00
3:35 AM,30.2,27.1,88,30.11,10.0,Calm,Calm,-,N/A,,Clear,0,2014-02-23 08:35:00
3:55 AM,30.7,27.0,86,30.11,10.0,Calm,Calm,-,N/A,,Clear,0,2014-02-23 08:55:00
4:15 AM,31.1,27.3,86,30.11,10.0,Calm,Calm,-,N/A,,Clear,0,2014-02-23 09:15:00
4:35 AM,31.8,27.3,83,30.11,10.0,Calm,Calm,-,N/A,,Clear,0,2014-02-23 09:35:00
4:55 AM,32.0,27.7,84,30.10,10.0,Calm,Calm,-,N/A,,Clear,0,2014-02-23 09:55:00
5:15 AM,32.0,28.0,85,30.11,10.0,Calm,Calm,-,N/A,,Clear,0,2014-02-23 10:15:00
5:35 AM,31.1,27.3,86,30.11,10.0,Calm,Calm,-,N/A,,Scattered Clouds,0,2014-02-23 10:35:00
5:55 AM,30.0,26.6,87,30.12,10.0,Calm,Calm,-,N/A,,Scattered Clouds,0,2014-02-23 10:55:00
6:15 AM,29.7,26.6,88,30.12,10.0,Calm,Calm,-,N/A,,Scattered Clouds,0,2014-02-23 11:15:00
6:35 AM,29.1,26.4,90,30.13,10.0,Calm,Calm,-,N/A,,Clear,0,2014-02-23 11:35:00
6:55 AM,28.4,25.9,90,30.12,10.0,Calm,Calm,-,N/A,,Clear,0,2014-02-23 11:55:00
7:10 AM,27.5,25.0,90,30.13,10.0,WSW,3.5,-,N/A,,Clear,250,2014-02-23 12:10:00
7:35 AM,28.0,25.3,90,30.12,10.0,Calm,Calm,-,N/A,,Clear,0,2014-02-23 12:35:00
7:55 AM,28.8,26.1,90,30.12,10.0,Calm,Calm,-,N/A,,Clear,0,2014-02-23 12:55:00
8:15 AM,30.9,27.1,86,30.12,10.0,Calm,Calm,-,N/A,,Clear,0,2014-02-23 13:15:00
8:35 AM,32.5,27.9,83,30.11,10.0,Calm,Calm,-,N/A,,Clear,0,2014-02-23 13:35:00
8:55 AM,36.0,28.8,75,30.11,10.0,Calm,Calm,-,N/A,,Clear,0,2014-02-23 13:55:00
9:15 AM,37.8,28.2,68,30.10,10.0,Calm,Calm,-,N/A,,Clear,0,2014-02-23 14:15:00
9:35 AM,41.4,29.8,64,30.09,10.0,Calm,Calm,-,N/A,,Clear,0,2014-02-23 14:35:00
9:55 AM,43.9,29.3,57,30.09,10.0,Calm,Calm,-,N/A,,Clear,0,2014-02-23 14:55:00
10:15 AM,46.9,28.2,48,30.08,10.0,Calm,Calm,-,N/A,,Clear,0,2014-02-23 15:15:00
10:35 AM,50.0,26.6,40,30.08,10.0,Calm,Calm,-,N/A,,Clear,0,2014-02-23 15:35:00
10:55 AM,52.5,28.0,39,30.07,10.0,Calm,Calm,-,N/A,,Clear,0,2014-02-23 15:55:00
11:15 AM,55.8,28.0,35,30.06,10.0,Calm,Calm,-,N/A,,Clear,0,2014-02-23 16:15:00
11:35 AM,57.6,23.0,26,30.06,10.0,Calm,Calm,-,N/A,,Clear,0,2014-02-23 16:35:00
11:55 AM,59.2,21.2,23,30.05,10.0,ENE,4.6,-,N/A,,Clear,60,2014-02-23 16:55:00
12:15 PM,60.8,20.7,21,30.04,10.0,ENE,4.6,-,N/A,,Clear,70,2014-02-23 17:15:00
12:35 PM,62.2,20.8,20,30.03,10.0,ENE,6.9,-,N/A,,Clear,70,2014-02-23 17:35:00
12:55 PM,63.0,21.0,20,30.02,10.0,ENE,5.8,-,N/A,,Clear,70,2014-02-23 17:55:00
1:15 PM,64.9,21.0,19,30.00,10.0,NNE,4.6,-,N/A,,Clear,20,2014-02-23 18:15:00
1:35 PM,66.6,19.4,17,29.99,10.0,Calm,Calm,-,N/A,,Scattered Clouds,0,2014-02-23 18:35:00
1:55 PM,68.0,19.6,16,29.98,10.0,WSW,13.8,20.7,N/A,,Scattered Clouds,250,2014-02-23 18:55:00
2:15 PM,67.8,20.7,17,29.97,10.0,WSW,11.5,18.4,N/A,,Scattered Clouds,240,2014-02-23 19:15:00
2:35 PM,68.4,21.4,17,29.97,10.0,WSW,9.2,20.7,N/A,,Scattered Clouds,250,2014-02-23 19:35:00
2:55 PM,67.5,21.6,18,29.96,10.0,WSW,18.4,25.3,N/A,,Scattered Clouds,250,2014-02-23 19:55:00
3:15 PM,68.9,22.1,17,29.94,10.0,SW,4.6,16.1,N/A,,Clear,230,2014-02-23 20:15:00
3:35 PM,68.9,24.6,19,29.94,10.0,West,12.7,16.1,N/A,,Clear,260,2014-02-23 20:35:00
3:55 PM,68.5,24.1,19,29.93,10.0,WSW,6.9,-,N/A,,Clear,240,2014-02-23 20:55:00
4:15 PM,68.0,25.0,20,29.93,10.0,West,13.8,19.6,N/A,,Clear,260,2014-02-23 21:15:00
4:35 PM,67.5,25.0,20,29.92,10.0,West,12.7,-,N/A,,Clear,260,2014-02-23 21:35:00
4:55 PM,67.1,25.0,20,29.92,10.0,West,9.2,19.6,N/A,,Clear,270,2014-02-23 21:55:00
5:15 PM,66.6,25.9,22,29.93,10.0,SW,10.4,-,N/A,,Clear,230,2014-02-23 22:15:00
5:35 PM,65.3,27.1,24,29.94,10.0,WSW,9.2,-,N/A,,Clear,250,2014-02-23 22:35:00
5:55 PM,63.3,28.0,26,29.94,10.0,WSW,8.1,18.4,N/A,,Clear,250,2014-02-23 22:55:00
6:15 PM,62.8,26.6,25,29.94,10.0,SW,6.9,16.1,N/A,,Clear,220,2014-02-23 23:15:00
6:35 PM,59.9,26.2,28,29.95,10.0,Calm,Calm,-,N/A,,Clear,0,2014-02-23 23:35:00
6:55 PM,52.9,32.7,46,29.96,10.0,Calm,Calm,-,N/A,,Scattered Clouds,0,2014-02-23 23:55:00
7:15 PM,51.3,31.8,47,29.97,10.0,Calm,Calm,-,N/A,,Scattered Clouds,0,2014-02-24 00:15:00
7:35 PM,48.0,32.5,55,29.97,10.0,Calm,Calm,-,N/A,,Clear,0,2014-02-24 00:35:00
7:55 PM,46.6,32.0,57,29.97,10.0,Calm,Calm,-,N/A,,Clear,0,2014-02-24 00:55:00
8:15 PM,45.0,32.4,61,29.97,10.0,Calm,Calm,-,N/A,,Scattered Clouds,0,2014-02-24 01:15:00
8:35 PM,42.1,33.1,70,29.98,10.0,Calm,Calm,-,N/A,,Mostly Cloudy,0,2014-02-24 01:35:00
8:55 PM,42.1,34.2,74,29.98,10.0,Calm,Calm,-,N/A,,Overcast,0,2014-02-24 01:55:00
9:15 PM,41.9,32.7,70,29.98,10.0,Calm,Calm,-,N/A,,Scattered Clouds,0,2014-02-24 02:15:00
9:35 PM,40.3,33.3,76,29.98,10.0,Calm,Calm,-,N/A,,Scattered Clouds,0,2014-02-24 02:35:00
9:55 PM,40.3,34.2,79,29.98,10.0,Calm,Calm,-,N/A,,Mostly Cloudy,0,2014-02-24 02:55:00
10:15 PM,40.1,32.7,75,29.98,10.0,Calm,Calm,-,N/A,,Overcast,0,2014-02-24 03:15:00
10:35 PM,39.4,32.7,77,29.98,10.0,Calm,Calm,-,N/A,,Mostly Cloudy,0,2014-02-24 03:35:00
10:55 PM,37.8,33.1,83,29.99,10.0,Calm,Calm,-,N/A,,Scattered Clouds,0,2014-02-24 03:55:00
11:15 PM,37.4,32.2,81,29.99,10.0,Calm,Calm,-,N/A,,Mostly Cloudy,0,2014-02-24 04:15:00
11:35 PM,36.9,31.8,82,29.98,10.0,West,3.5,-,N/A,,Scattered Clouds,280,2014-02-24 04:35:00
11:55 PM,35.8,31.1,83,29.99,10.0,Calm,Calm,-,N/A,,Clear,0,2014-02-24 04:55:00